This is the latest recevied weather packets stored in our database for station/object S54A-11. If no packets are shown the sender has not sent any weather packets the latest 10 day(s).
| Time | Temp. | Humidity | Pressure | Rain* | Wind** | Luminosity | Snow |
|---|---|---|---|---|---|---|---|
| 1788406255 | 16.11° C | 57% | 1020.7 hPa | - | - | - | - |
| 1788405355 | 16.11° C | 63% | 1020.7 hPa | - | - | - | - |
| 1788404455 | 16.11° C | 55% | 1020.8 hPa | - | - | - | - |
| 1788403555 | 16.11° C | 56% | 1020.8 hPa | - | - | - | - |
| 1788402655 | 16.11° C | 57% | 1020.9 hPa | - | - | - | - |
| 1788401755 | 16.67° C | 55% | 1020.8 hPa | - | - | - | - |
| 1788380152 | 21.11° C | 48% | 1020 hPa | - | - | - | - |
| 1788378352 | 21.67° C | 46% | 1019.7 hPa | - | - | - | - |
| 1788377452 | 21.67° C | 46% | 1019.6 hPa | - | - | - | - |
| 1788376552 | 22.22° C | 45% | 1019.4 hPa | - | - | - | - |
| 1788375652 | 22.22° C | 44% | 1019.4 hPa | - | - | - | - |
| 1788374752 | 22.78° C | 43% | 1019.3 hPa | - | - | - | - |
| 1788373851 | 22.78° C | 43% | 1019 hPa | - | - | - | - |
| 1788372951 | 23.33° C | 42% | 1018.7 hPa | - | - | - | - |
| 1788370251 | 26.11° C | 40% | 1018.3 hPa | - | - | - | - |
| 1788369351 | 27.22° C | 39% | 1018.2 hPa | - | - | - | - |
| 1788368451 | 28.89° C | 38% | 1018 hPa | - | - | - | - |
| 1788366651 | 32.78° C | 36% | 1018.2 hPa | - | - | - | - |
| 1788365751 | 29.44° C | 37% | 1018.1 hPa | - | - | - | - |
| 1788364851 | 28.89° C | 37% | 1018.1 hPa | - | - | - | - |
| 1788363951 | 28.89° C | 36% | 1018 hPa | - | - | - | - |
| 1788362151 | 31.67° C | 35% | 1018.1 hPa | - | - | - | - |
| 1788358550 | 31.11° C | 34% | 1018.6 hPa | - | - | - | - |
| 1788355850 | 32.22° C | 34% | 1018.8 hPa | - | - | - | - |
| 1788354950 | 32.22° C | 32% | 1019 hPa | - | - | - | - |
* Rain since midnight (hover to see other rain measurements)
** Current wind speed in m/s (hover to see current wind gust speed)